GEFSSE_500_meanwind_000.txt.gz
Wind_Speed
17 16 15 16 15 14 14 13 12 10 10 11 12 14 15 16 17 18 18 18 17 17 17 16 17 17 19 19 18 17 15 16 17 20 23 26 26 25 24 23 21 17 17
17 17 18 17 15 14 13 12 11 11 12 13 13 14 15 15 16 16 17 18 18 17 16 16 17 17 18 18 18 18 17 16 16 20 21 24 29 30 29 27 24 21 20
18 18 15 14 13 14 13 13 12 13 14 15 15 17 17 18 18 18 19 20 20 18 17 16 18 17 18 18 19 19 18 16 15 20 24 25 30 30 29 30 29 26 25
17 15 14 14 14 14 15 15 16 16 17 18 19 20 20 20 20 21 22 22 22 21 20 19 18 18 18 17 19 18 16 16 15 16 20 22 25 27 32 33 32 28 27
17 16 16 16 16 17 17 18 19 20 21 22 22 23 22 22 23 24 25 25 25 24 22 20 18 17 18 17 17 18 17 16 15 15 16 19 23 26 26 28 30 28 26
19 19 20 20 20 20 20 21 22 23 24 25 25 25 25 26 27 27 28 27 25 24 23 22 20 18 18 18 18 19 19 16 15 15 14 17 22 25 24 26 26 24 23
21 22 22 23 23 23 24 25 26 27 27 27 27 27 28 28 29 28 27 27 25 24 23 21 20 19 19 19 19 18 19 18 17 16 15 14 17 21 25 27 26 25 25
22 24 25 24 25 26 27 27 28 28 28 28 28 29 28 28 27 27 26 25 26 25 24 22 20 20 20 20 20 19 19 19 19 19 19 17 17 18 21 25 28 27 27
25 25 26 28 28 28 29 28 28 28 28 28 29 29 28 28 28 27 27 26 27 27 27 26 23 22 20 21 21 21 20 21 21 22 22 21 20 20 19 21 24 27 28
29 27 26 27 30 30 29 28 28 27 27 27 27 27 27 27 27 27 27 27 28 29 29 29 27 25 23 22 22 23 22 22 23 24 25 25 23 24 22 21 22 24 26
30 29 27 27 28 29 28 27 27 26 26 26 26 26 27 28 29 29 29 30 30 30 31 32 31 28 26 25 25 25 25 24 24 25 27 28 26 26 26 24 21 21 23
30 28 27 27 27 28 29 28 28 28 29 29 30 30 31 31 32 33 34 33 33 33 33 34 34 32 30 28 29 28 27 26 25 26 28 30 30 28 28 27 25 22 21
28 27 26 26 27 30 32 32 32 33 34 35 36 36 37 38 38 38 39 38 38 38 37 37 36 36 35 32 32 32 30 29 28 28 29 31 32 31 30 31 30 26 24
27 29 30 30 31 33 36 37 38 39 40 41 41 42 42 43 43 44 43 41 41 41 41 40 40 40 39 37 36 34 34 32 32 31 31 32 34 34 33 33 33 31 29
32 33 35 37 39 39 40 41 43 44 44 45 46 47 47 47 47 47 45 42 41 41 41 41 42 42 41 41 40 39 38 38 36 34 34 34 35 36 36 36 35 34 33
39 41 42 43 44 45 45 45 46 46 46 47 47 48 49 49 49 49 46 42 40 41 42 44 44 45 46 47 46 45 43 41 41 40 39 37 36 36 37 38 37 37 37
45 46 47 48 48 49 49 49 48 48 47 47 47 48 49 50 50 49 47 45 43 44 45 47 48 49 50 51 51 50 49 45 42 43 44 42 41 38 37 39 40 39 40
48 48 49 49 50 50 50 49 49 48 47 47 47 48 48 48 48 48 48 48 49 49 48 49 50 51 51 52 53 54 53 51 47 44 44 44 45 43 40 41 42 42 42
49 50 50 50 51 51 51 50 49 48 47 47 47 48 47 47 47 47 48 49 50 51 50 49 49 51 53 54 55 56 56 55 54 51 47 45 46 47 45 44 44 44 45
52 52 52 52 52 51 49 47 46 46 45 45 46 46 46 46 45 45 44 45 45 46 47 47 48 50 52 54 56 57 57 57 58 57 55 49 47 48 49 47 46 46 47
55 53 52 52 51 49 46 44 42 43 43 44 44 43 42 41 41 40 41 42 43 45 48 51 52 53 54 56 58 60 61 61 62 62 59 52 48 48 49 49 49 49 49
54 51 51 49 47 45 43 41 41 40 40 40 39 37 37 37 38 40 42 44 46 48 50 54 56 58 58 59 61 63 63 63 63 63 60 55 50 49 50 51 52 52 53
51 50 50 50 45 41 40 38 37 36 36 34 33 34 35 37 39 42 45 48 50 52 55 58 60 62 63 62 62 63 64 64 61 58 56 55 54 53 52 54 55 55 55
49 52 54 53 50 46 41 36 35 34 34 34 33 34 36 38 41 44 48 52 55 58 60 62 64 66 66 65 66 66 67 67 64 62 54 50 53 57 58 57 58 58 57
52 53 52 48 47 46 41 35 34 34 34 34 34 35 38 42 46 50 53 55 57 59 61 62 63 65 67 68 69 70 71 72 70 68 64 54 50 54 59 61 63 62 62
50 50 46 44 46 42 34 32 33 33 32 32 34 37 41 45 48 51 54 56 58 59 59 59 60 62 63 65 67 69 72 74 76 74 73 71 64 58 52 57 64 63 64

GEFSSE_500_meanwind_006.txt.gz
Wind_Speed
16 17 17 17 18 19 19 17 15 14 13 12 12 12 13 12 12 13 13 14 14 14 15 15 15 14 13 13 12 11 10 10 9 10 13 17 22 25 26 24 22 21 20
17 17 18 19 19 19 17 15 15 15 15 15 14 15 15 15 15 16 16 17 17 16 17 17 17 15 14 14 14 12 11 11 10 10 12 16 19 23 26 27 26 24 23
19 19 19 19 18 17 16 16 16 17 17 18 18 18 18 18 19 19 19 19 19 19 19 20 19 17 15 16 16 14 12 11 10 10 11 14 17 20 23 27 28 27 26
20 19 18 17 17 18 18 18 18 19 20 20 20 20 21 21 22 22 22 21 21 22 23 22 21 19 16 15 16 15 14 12 12 11 11 13 14 17 21 24 26 27 28
18 17 17 17 18 19 20 20 20 21 22 22 22 22 23 24 25 25 25 24 24 25 25 24 21 19 17 15 15 15 15 14 14 14 13 12 12 12 16 20 23 26 28
18 18 19 19 21 22 24 24 23 24 24 24 24 24 25 26 27 27 26 26 27 27 25 23 20 18 16 15 15 14 15 15 15 17 16 13 11 10 11 15 20 22 25
21 22 23 23 23 24 26 26 26 26 26 26 26 26 27 27 28 28 27 27 26 26 24 23 21 19 17 17 16 15 15 16 16 17 18 17 13 11 9 11 16 20 23
24 25 26 26 26 26 27 28 28 28 28 27 27 28 28 28 28 28 27 27 26 24 22 22 21 20 19 19 19 17 16 17 17 17 18 19 18 15 13 11 13 16 20
25 26 27 28 28 28 27 27 28 29 29 29 28 28 28 28 27 26 26 25 24 23 23 22 22 22 21 21 21 20 19 19 19 19 19 19 20 19 17 15 14 15 17
28 29 29 29 29 29 28 27 28 28 28 27 27 27 27 26 26 25 25 25 25 25 25 25 25 25 24 23 23 23 22 22 22 22 22 21 21 21 21 20 19 18 17
29 29 28 27 28 28 27 27 26 26 26 26 26 25 25 25 25 26 27 28 28 29 29 29 29 29 29 27 27 27 26 26 25 24 25 24 23 23 24 23 23 22 20
26 24 23 24 24 25 26 26 25 25 25 26 27 27 28 29 30 31 32 33 33 33 34 34 33 33 33 33 32 30 30 30 29 28 28 29 27 26 26 26 26 25 24
25 23 22 22 23 25 28 29 29 29 31 32 33 33 34 35 36 36 37 38 38 38 38 38 38 38 38 38 38 35 33 32 32 32 31 31 30 29 28 28 29 29 28
27 27 28 28 28 30 32 34 36 37 38 39 40 41 41 42 43 43 43 43 43 43 43 43 43 43 42 42 42 41 38 35 35 34 34 33 32 31 30 29 30 31 31
30 31 33 34 35 36 37 39 41 43 44 46 47 48 48 49 49 49 48 47 46 46 46 46 46 46 46 45 45 45 43 40 37 36 36 35 34 34 33 31 31 32 34
32 33 34 35 36 37 38 40 42 44 46 48 49 51 52 53 53 52 52 51 49 48 48 48 48 48 48 47 47 47 46 43 41 39 39 39 39 38 38 36 34 34 35
34 36 37 38 39 41 41 42 43 45 46 47 48 49 51 52 53 54 53 52 51 50 49 49 49 49 49 48 48 47 46 44 42 41 40 40 41 41 42 42 40 38 37
39 41 43 44 45 46 47 47 48 50 51 52 51 51 50 50 51 52 53 53 53 52 51 50 49 49 49 48 48 48 47 47 45 43 41 41 41 42 43 44 44 44 42
45 47 48 50 51 52 53 54 54 54 54 53 53 52 51 50 49 49 50 52 53 53 52 51 49 48 48 48 48 48 48 47 46 45 43 43 44 44 45 45 46 46 46
50 51 53 54 55 56 56 57 58 57 56 53 51 51 50 49 48 48 48 49 49 50 49 48 47 46 46 45 45 46 45 45 45 45 44 45 46 46 47 47 48 48 48
53 55 58 60 60 60 59 58 58 56 53 51 50 50 49 49 48 47 47 47 47 47 46 45 44 43 43 43 45 46 46 47 48 48 49 49 49 49 49 49 50 50 51
58 59 60 62 63 62 60 59 57 54 51 50 50 51 50 49 47 45 44 43 43 43 43 42 42 42 44 46 48 49 50 51 52 53 54 55 56 56 55 55 54 55 55
60 60 61 63 62 61 58 57 56 54 52 52 52 52 51 49 45 43 43 41 41 41 40 40 41 44 46 48 50 52 54 55 56 58 60 62 63 63 63 62 60 58 59
62 62 62 63 62 61 58 55 55 54 53 53 52 50 49 48 46 44 42 41 41 41 40 41 42 44 47 49 51 54 58 61 63 64 64 65 67 68 68 69 67 64 61
61 60 61 62 62 60 58 56 54 51 50 49 47 46 46 46 45 44 42 42 40 39 41 42 44 45 48 51 54 57 59 60 60 60 58 58 61 66 69 70 71 69 65
58 58 59 60 60 60 58 56 52 49 48 46 44 44 45 45 43 42 42 41 40 39 40 41 43 46 50 53 54 52 49 47 45 44 44 47 53 59 65 69 72 72 70

GEFSSE_500_meanwind_012.txt.gz
Wind_Speed
18 18 17 16 15 15 15 14 12 11 11 11 11 11 11 12 13 13 13 13 13 13 13 12 12 11 11 11 11 11 11 11 11 12 12 13 15 18 23 26 26 24 22
19 19 18 18 18 17 16 14 12 11 11 12 12 13 14 15 16 17 17 17 16 16 16 16 15 15 15 14 13 12 12 12 12 13 13 14 15 17 20 24 27 28 26
20 19 20 20 19 18 16 14 13 13 14 14 15 16 17 18 19 19 20 20 19 19 18 18 18 18 17 16 15 14 13 13 13 13 13 13 14 16 18 21 25 28 29
21 21 21 20 18 17 16 15 15 16 16 17 18 19 19 20 21 21 22 22 22 21 20 20 20 19 17 16 15 15 14 14 14 14 14 14 13 14 17 20 23 26 29
23 22 22 19 18 17 17 18 19 19 19 19 21 22 22 22 23 23 23 23 23 22 21 21 21 20 17 15 14 14 15 14 14 15 15 15 15 14 15 17 20 23 27
23 22 21 20 19 20 21 22 23 23 23 23 23 24 24 25 25 25 24 24 24 24 23 22 21 19 17 14 13 13 14 14 14 15 16 16 16 16 15 15 17 20 24
22 21 21 21 22 23 24 25 25 26 26 26 26 26 26 26 26 25 25 25 25 24 23 22 21 19 17 15 14 14 14 14 14 15 16 16 17 17 17 16 15 16 20
22 23 23 24 25 25 26 27 27 27 27 28 28 28 28 28 27 27 27 26 26 24 23 22 21 20 18 17 16 16 15 15 16 16 16 16 16 18 19 19 17 15 15
24 25 26 27 28 28 28 28 29 29 29 29 28 28 28 28 27 27 27 27 25 24 23 23 22 21 20 19 19 18 17 17 18 18 18 17 17 17 19 21 21 19 17
26 27 28 28 29 29 29 29 28 28 28 28 28 28 27 27 27 26 26 25 25 24 24 24 24 23 23 23 22 21 20 21 21 21 20 19 19 19 19 21 22 23 22
27 28 28 28 28 28 27 27 27 26 26 26 27 27 27 27 27 27 27 27 27 26 26 27 27 27 28 28 27 26 25 25 25 25 24 23 22 21 21 22 22 24 25
26 26 26 25 25 26 26 25 25 25 25 26 27 28 28 29 29 30 30 30 31 31 31 31 32 32 33 33 33 32 31 30 29 28 28 27 26 25 24 25 25 25 25
25 25 25 25 26 27 27 28 28 28 29 30 31 32 32 33 34 34 35 35 36 36 37 37 38 38 39 39 39 38 37 36 34 33 32 32 31 30 29 28 28 28 28
26 26 27 27 28 29 30 31 32 33 34 35 36 37 37 38 39 40 40 41 41 42 42 43 44 44 44 45 45 44 43 42 41 39 37 36 36 35 34 32 31 31 31
26 27 27 28 29 30 32 33 34 34 36 37 38 38 39 40 41 42 42 43 44 45 46 47 48 49 49 50 50 49 48 47 46 43 41 38 38 38 38 37 35 34 34
27 28 30 32 33 35 36 37 38 39 40 40 41 42 42 42 42 43 43 44 44 44 45 47 49 51 52 53 53 53 52 51 49 47 45 42 40 39 40 40 39 38 37
30 32 34 36 38 40 41 43 44 45 45 46 46 47 47 47 47 47 47 47 47 47 47 48 49 51 53 54 54 55 54 53 51 50 48 45 43 42 42 42 43 42 41
35 38 40 42 44 45 47 48 49 49 50 50 51 51 52 52 52 52 51 51 51 50 50 50 50 51 53 54 55 55 55 55 54 52 50 48 46 44 44 44 45 45 44
42 44 46 48 50 51 52 53 53 53 53 53 53 54 54 55 55 54 54 53 53 53 52 51 51 52 54 55 55 56 57 57 56 54 52 49 47 46 45 45 46 46 46
48 50 52 53 55 56 56 57 57 56 56 55 55 55 55 55 54 54 54 54 53 53 52 51 52 53 54 55 55 56 57 58 57 55 53 50 49 47 47 47 48 48 48
53 53 53 54 55 56 57 58 58 58 57 57 56 55 54 54 54 54 53 53 52 52 51 51 52 53 54 55 55 56 57 57 57 55 54 52 50 48 48 48 48 48 49
54 54 54 54 55 56 57 58 59 59 58 57 56 55 55 55 54 53 53 52 52 51 51 51 51 52 53 53 53 54 56 57 56 55 54 52 51 49 48 48 48 48 49
53 54 54 54 55 56 57 58 59 59 59 58 57 56 55 55 55 54 53 53 53 52 52 52 52 52 51 51 50 50 51 53 53 52 51 49 49 48 49 49 49 49 50
58 58 59 59 59 59 60 61 61 61 61 60 58 57 57 56 55 55 55 54 54 53 52 52 53 52 52 51 49 48 49 49 50 49 48 49 49 50 50 51 52 52 53
66 67 67 68 67 67 65 64 64 64 63 62 60 59 58 57 56 55 54 53 53 51 51 51 52 53 53 52 50 49 49 49 49 49 49 48 49 51 52 53 54 55 56
75 75 75 75 74 72 69 67 66 65 64 63 61 59 57 56 55 53 52 51 50 49 49 50 51 53 53 53 52 50 50 49 49 49 49 48 50 51 53 54 55 56 57

GEFSSE_500_meanwind_018.txt.gz
Wind_Speed
18 19 19 20 20 20 21 21 21 20 18 16 14 12 12 11 12 12 13 13 12 13 13 13 13 13 12 12 13 13 13 13 13 12 12 12 12 12 13 14 17 20 21
21 22 23 23 23 23 23 23 23 21 19 17 16 15 14 14 15 15 16 16 16 16 16 16 16 15 15 15 15 15 16 16 15 14 14 13 13 13 14 14 16 18 21
25 26 26 26 25 25 25 25 24 22 20 19 18 18 18 18 18 18 19 19 19 19 19 19 18 17 17 16 16 16 16 16 17 16 15 14 14 14 14 15 15 17 19
27 27 27 27 26 26 26 26 24 22 21 20 20 21 21 21 22 22 22 22 22 22 22 21 19 18 17 17 16 16 16 16 17 17 16 15 15 14 14 14 15 16 17
28 28 27 27 27 27 26 25 23 22 22 22 22 23 23 23 24 24 25 24 24 24 23 22 21 19 18 17 16 16 15 15 16 16 16 15 15 15 14 14 14 15 16
28 27 28 28 28 27 26 24 23 23 23 24 24 24 24 25 25 26 26 26 25 24 24 23 22 21 20 19 17 16 15 15 14 14 14 14 15 15 14 15 15 14 15
29 28 28 29 27 26 25 25 24 25 25 26 26 26 26 26 26 26 26 26 25 25 24 24 23 22 22 20 18 17 16 14 13 13 13 13 14 14 14 15 15 15 15
30 29 27 28 27 26 27 27 27 27 28 28 28 28 27 27 27 27 27 26 25 25 25 24 24 23 22 21 20 18 17 16 15 14 14 13 14 14 14 15 15 15 16
30 30 29 28 28 28 28 28 29 29 29 29 29 29 28 28 28 27 27 26 26 26 25 24 24 23 22 22 20 19 19 18 17 17 16 14 15 15 14 15 15 16 17
31 31 32 31 29 28 29 30 30 29 28 28 27 27 27 28 27 27 27 26 27 27 26 25 24 23 23 22 21 20 20 20 20 20 19 17 17 17 16 16 16 17 17
32 32 32 32 30 29 28 27 27 27 26 25 25 25 25 26 26 26 26 26 27 27 27 26 26 25 25 25 24 23 23 23 23 23 23 21 21 20 19 19 19 19 19
29 29 30 29 28 27 27 25 24 25 25 25 25 25 25 26 26 27 26 27 28 28 29 29 29 29 29 29 29 28 28 28 27 27 27 26 26 25 24 23 23 22 22
27 26 27 27 26 26 25 25 24 24 24 25 26 26 27 28 29 30 29 30 31 32 33 33 33 34 34 34 34 34 34 34 33 33 32 30 30 30 29 28 28 27 26
28 28 28 27 27 27 26 26 26 26 26 27 27 29 29 30 32 32 33 33 34 35 36 37 37 39 40 40 40 40 39 39 39 39 38 35 35 35 34 34 33 33 32
30 30 29 29 28 28 29 29 29 29 30 31 32 33 34 34 35 36 36 36 37 37 38 38 39 40 42 43 44 44 44 43 43 44 44 41 40 40 39 39 39 39 38
30 30 30 31 31 31 32 33 33 34 35 36 37 38 39 40 41 41 41 41 41 42 42 41 41 42 43 43 43 44 44 44 44 45 45 43 42 43 43 43 43 43 43
31 31 32 33 35 36 37 38 40 41 42 42 44 45 46 47 48 48 48 48 48 47 46 46 46 46 46 46 46 46 46 46 46 46 46 44 44 44 45 45 45 46 46
33 35 37 39 41 43 44 45 47 48 48 49 50 51 52 53 53 53 53 53 54 53 52 51 51 51 50 50 50 50 50 49 48 49 49 48 46 46 46 47 47 47 48
39 41 43 45 46 48 50 51 52 53 54 55 55 55 55 56 56 57 56 57 58 57 57 56 56 55 55 54 54 53 53 52 51 51 51 51 50 49 48 48 49 49 49
44 45 47 48 50 51 53 55 56 56 57 57 57 57 57 56 57 57 57 58 59 59 59 59 59 58 58 57 57 56 56 55 54 53 52 52 51 51 51 51 51 51 51
45 47 48 50 51 53 55 56 57 57 58 58 58 58 57 57 56 56 56 57 58 59 60 60 60 60 59 59 58 58 57 56 55 54 52 51 51 52 53 53 52 52 52
46 48 51 53 55 57 58 60 61 61 62 62 62 62 61 61 60 58 57 57 58 59 59 60 60 60 60 59 59 58 57 57 57 55 53 50 49 49 50 52 53 52 52
51 54 58 61 63 65 67 68 69 69 69 68 68 68 67 66 65 64 62 61 61 60 60 60 61 61 60 60 59 59 59 59 58 57 55 53 50 49 49 51 53 54 54
60 63 67 70 72 74 76 77 77 77 77 75 74 73 72 70 69 68 67 65 64 63 62 62 63 62 61 60 60 60 60 60 60 59 59 58 55 54 53 53 54 55 55
69 72 74 77 80 82 83 84 83 82 81 79 78 76 75 73 71 70 68 67 66 65 64 63 63 63 62 62 61 61 61 62 62 62 61 61 60 60 59 59 59 58 57
76 78 80 82 83 84 85 84 83 81 78 76 74 72 72 71 70 69 68 67 66 65 63 63 62 62 62 62 62 62 62 62 61 61 61 61 61 61 61 61 60 59 58

GEFSSE_500_meanwind_024.txt.gz
Wind_Speed
19 18 18 18 17 17 17 18 19 20 20 20 20 19 18 17 16 15 15 14 14 13 13 13 13 13 14 14 14 14 13 12 12 12 12 11 11 11 11 11 11 14 17
20 20 19 19 20 20 21 21 21 21 22 22 22 21 20 19 19 18 18 17 17 17 16 16 16 16 16 17 17 17 16 15 15 14 14 14 13 13 13 13 12 12 13
21 21 21 22 22 22 22 22 22 22 23 23 22 22 21 21 21 21 21 20 20 20 19 19 19 19 19 19 19 19 18 17 17 17 17 16 15 14 14 13 13 12 12
21 22 23 24 23 23 23 23 23 24 24 24 23 23 23 23 22 22 22 22 22 22 22 21 21 21 21 21 21 20 19 18 18 18 18 17 16 15 15 14 13 12 12
23 24 25 25 24 24 24 24 24 24 25 25 24 24 24 24 24 24 23 23 23 24 23 23 23 23 23 22 22 21 20 19 18 18 18 18 17 16 15 14 14 12 11
24 25 26 25 25 25 25 25 25 26 26 26 26 26 26 25 25 25 25 25 25 25 25 24 24 24 23 23 22 22 21 20 19 19 19 18 17 16 15 15 14 14 13
23 24 26 26 26 26 27 27 27 27 27 27 28 28 28 28 28 28 27 27 27 27 27 26 25 25 24 24 23 23 23 22 21 20 19 19 17 16 16 15 15 15 15
24 25 26 28 28 28 29 29 29 29 30 30 30 30 31 31 30 30 29 29 29 29 28 28 27 27 26 26 25 25 24 23 22 21 20 20 18 17 16 16 16 15 15
27 27 27 29 30 31 31 31 31 32 32 32 32 32 32 32 32 31 31 30 29 30 30 29 29 28 28 27 26 25 24 23 23 22 21 21 20 18 17 17 16 16 16
30 31 32 32 33 33 34 34 34 34 34 34 34 33 32 32 31 31 30 29 29 29 30 29 29 28 27 27 26 25 24 24 24 23 22 22 22 20 19 18 17 17 16
31 31 33 33 32 33 33 34 35 35 35 35 34 33 31 30 29 29 28 27 28 28 28 28 27 27 26 26 26 25 24 24 24 24 23 23 24 23 21 20 19 18 18
30 30 30 31 31 31 31 32 33 33 34 35 34 33 32 31 30 29 28 27 27 27 27 27 27 26 26 26 26 26 26 26 26 25 25 25 26 26 24 23 22 21 21
30 29 29 30 32 33 32 32 32 33 34 35 35 35 34 33 32 31 30 30 30 30 30 30 29 29 29 29 29 28 28 29 29 28 28 28 28 29 28 27 26 25 25
30 31 31 32 34 35 36 36 35 35 36 36 37 37 37 36 35 34 33 33 32 33 33 33 33 32 32 32 33 32 32 33 33 33 32 32 33 33 33 32 31 30 29
35 34 34 34 36 37 38 38 38 37 37 38 38 38 38 38 38 37 36 36 36 36 36 36 36 36 36 36 36 36 36 36 37 37 37 37 38 38 38 37 36 35 34
36 36 35 35 37 38 40 40 40 40 40 40 40 40 41 41 41 41 41 40 40 40 40 40 40 40 40 40 40 39 39 39 40 40 40 41 41 42 42 42 41 40 40
38 38 38 38 39 40 41 42 43 44 44 44 44 45 45 45 45 45 45 45 45 45 45 45 45 45 45 45 44 44 43 43 43 43 43 43 43 43 43 43 43 43 43
41 43 44 44 45 46 47 47 48 49 50 50 50 50 51 51 51 51 51 51 51 51 51 51 51 50 50 50 50 49 49 48 47 47 47 47 46 44 44 44 44 43 43
44 46 48 49 50 51 51 52 53 54 55 55 56 56 57 57 57 57 57 57 57 57 57 57 57 56 56 56 55 55 54 53 53 52 51 51 51 49 48 47 47 46 45
47 49 50 51 52 53 53 54 56 57 58 58 59 60 61 61 61 62 62 62 62 61 60 61 61 60 60 60 60 60 59 59 58 57 56 56 55 54 53 52 51 50 49
49 50 51 52 53 54 55 57 58 59 60 61 62 64 64 65 65 65 64 64 64 64 63 63 63 62 62 62 62 63 63 62 62 61 60 59 59 58 57 55 54 53 52
52 54 55 57 59 61 62 63 64 65 66 66 67 68 69 70 70 70 70 69 68 68 67 67 66 65 64 64 64 64 64 64 64 64 63 62 61 61 59 58 56 55 54
59 60 61 62 64 65 66 67 69 70 71 72 72 72 73 74 74 75 75 75 74 74 73 72 71 70 68 67 66 66 65 64 64 64 64 64 63 62 61 60 59 57 55
68 67 66 66 67 69 71 72 74 74 75 75 75 75 75 76 77 78 78 79 79 78 77 77 76 75 74 72 71 70 69 67 66 65 64 63 63 63 62 60 59 58 57
74 73 72 72 74 75 77 77 77 77 76 76 76 76 76 77 78 79 80 81 81 81 81 80 80 79 79 77 76 75 73 72 71 69 67 65 64 63 62 61 59 58 57
78 78 78 78 79 79 79 78 76 73 71 69 69 70 71 72 73 76 78 79 80 80 81 81 81 81 81 80 79 78 76 75 74 73 71 69 68 66 65 64 62 61 60